Showing default

CUPID, 49264

Orbit data source: Space-Track

CUPID, 49264 is a payload satellite owned by BU (US) in SSO that was launched on Mon, 27 Sep 2021 UTC via an ATLAS V 401 launch vehicle from the Air Force Western Test Range (AFWTR). Payload-class satellites include a variety of spacecraft equipped with specific instruments for various scientific and technological missions. These include communications satellites like Starlink; space stations such as the ISS; scientific satellites like the Hubble; Earth observation satellites from companies like Planet Labs, Umbra, and HawkEye 360; GPS; miniature CubeSats for education and research; and military/defense satellites.

Loading next visibility...
Identifier
49264, 2021-088E
Orbit
SSO
Country
Flag of USUS
Related business
Manufacturer
BU
Mission
Operational Amateur Astronomy
Bus & Motor
CUBESAT 6U, Unknown motor
Mass
~10 kg wet, 10 kg dry
Launch date (UTC)
2021-09-27 (5 years ago)
Launch vehicle
ATLAS V 401
Launch site
Air Force Western Test Range (AFWTR)
Object type
Payload
Rocket body
Debris
Shape & HBR
Box, 0.1 m
Radar Cross Section
0.080 m², Medium (>0.1 m² and < 1m²)

Expand to show TLE details & history
Last TLE update: 2 days ago

TLE from 2 days ago
0 CUPID
1 49264U 21088E   26171.14254596  .00006193  00000-0  24282-3 0  9997
2 49264  97.3862 232.3027 0013237  59.4596 300.7947 15.26039156260630
Epoch: 2026-06-20T03:25Z
TLE epoch observation values (Epoch: 2026-06-20T03:25:15.970Z)
Latitude
-0.00005°
Longitude
-87.37525°
Altitude
486.121 km
Speed
7.625 km/s
True Right ascension
15h 29m 12s
True Declination
0° 00' 00"
Sunlit
Object was in full shadow at epoch
Visualization orbit readout
Latitude
Unknown
Longitude
Unknown
Altitude
Unknown
Speed
Unknown
Apparent Right ascension
Unknown
Apparent Declination
Unknown
Sunlit
N/A
Visualization observer readout
Local Sidereal Time
21:35:56
Azimuth
Unknown
Elevation
Unknown
Doppler factor
Unknown
Orbital elements
Apogee altitude
493.708 km
Perigee altitude
475.54 km
Semi-major axis
6,862.761 km
Eccentricity
0.00132
Inclination
97.3862°
RAAN
232.3027°
Arg. of periapsis
59.4596°
True anomaly
300.66429°
Mean anomaly
300.7947°
Eccentric anomaly
300.72951°
Mean motion
3.81764 °/min
Orbital period
94.3 mins
BSTAR
0.00024282
Loading maneuver chart data...
Computing Atmospheric mass density...
Loading historical data...
Loading historical data...
Loading historical data...
Loading historical data...
Loading historical data...
Loading historical data...
Loading historical data...
Other satellites on launch #88 in the year 2021 (2021-09-27 UTC)

Documentation

Showing up to 5 results
|